Voltar ao catálogo

STARLINK-36151

AtivoComunicaçõesVLEO
NORAD 67123·PAYLOAD·🇺🇸 United States

Lançado Dec 15, 2025 de Cape Canaveral Space Force Station

Loading…

Próximas Passagens (próximas 24 horas)

TLE

AtualizadoSource: CelesTrak SupGP

Época: Sep 15, 2026, 02:44 UTC

1 67123C 25299X   26258.11437500 -.00017192  00000+0 -62281-3 0  2581
2 67123  42.9998 179.0449 0001289 272.0337 257.6886 15.27580264    13

Acompanhe STARLINK-36151 em tempo real com AllMySat

Download on the App Store